Kansas City, MO

1:49 AM CST on February 25, 2017 (GMT -0600)
Kansas City International

Weather History for KMCI - January, 2014

Change the Weather History Date:

Wednesday, January 1, 2014

  Actual Average Record
Temperature  
Mean Temperature 22 °F 29 °F  
Max Temperature 36 °F 38 °F 64 °F (1897)
Min Temperature 7 °F 20 °F -13 °F (1974)
Degree Days  
Heating Degree Days 44 36  
Month to date heating degree days 36  
Since 1 July heating degree days 2078  
Cooling Degree Days 0 0  
Month to date cooling degree days 0  
Year to date cooling degree days 0  
Moisture  
Dew Point 11 °F    
Average Humidity 81    
Maximum Humidity 92    
Minimum Humidity 60    
Precipitation  
Precipitation 0.12 in 0.03 in 1.56 in (1892)
Month to date precipitation 0.03  
Year to date precipitation 0.03  
Snow  
Snow 0.00 in 0.10 in 3.50 in (1948)
Month to date snowfall 0.1  
Since 1 July snowfall 6.3  
Snow Depth 2.00 in    
Sea Level Pressure  
Sea Level Pressure 30.18 in    
Wind  
Wind Speed 13 mph (North)    
Max Wind Speed 22 mph    
Max Gust Speed 28 mph    
Visibility 6 miles    
Events Fog , Snow    
T = Trace of Precipitation, MM = Missing Value Source: NWS Daily Summary

Daily Weather History Graph

Daily Weather History Graph

Search for Another Location

Airport or City:

Trip Planner

Search our weather history database for the weather conditions in past years. The results will help you decide how hot, cold, wet, or windy it might be!

Date:

Astronomy

Jan. 01, 2014 Rise Set
Actual Time 7:38 AM CST 5:06 PM CST
Civil Twilight 7:08 AM CST 5:36 PM CST
Nautical Twilight 6:35 AM CST 6:10 PM CST
Astronomical Twilight 6:02 AM CST 6:42 PM CST
Moon 7:30 AM CST (1/1) 5:52 PM CST (1/1)
Length of Visible Light 10h 27m
Length of Day
9h 27m
New Moon, 0% of the Moon is Illuminated
Jan 1
New Moon
Jan 7
First Quarter
Jan 15
Full
Jan 23
Last Quarter
Jan 30
New

Hourly Weather History & Observations

Time (CST) Temp. Windchill Dew Point Humidity Pressure Visibility Wind Dir Wind Speed Gust Speed Precip Events Conditions
12:53 AM 34.0 °F 26.6 °F 21.9 °F 61% 30.07 in 10.0 mi NNE 9.2 mph - N/A   Clear
1:53 AM 23.0 °F 13.9 °F 19.0 °F 85% 30.08 in 9.0 mi NE 8.1 mph - N/A   Clear
2:53 AM 21.0 °F 12.4 °F 18.0 °F 88% 30.07 in 7.0 mi NNE 6.9 mph - N/A   Clear
3:53 AM 19.9 °F 11.1 °F 17.1 °F 89% 30.06 in 8.0 mi NE 6.9 mph - N/A   Clear
4:53 AM 18.0 °F 7.7 °F 16.0 °F 92% 30.05 in 8.0 mi NNE 8.1 mph - N/A   Clear
5:53 AM 17.1 °F 5.0 °F 15.1 °F 92% 30.06 in 9.0 mi North 10.4 mph - N/A   Clear
6:53 AM 17.1 °F 4.3 °F 14.0 °F 88% 30.09 in 8.0 mi NNE 11.5 mph - N/A   Clear
7:53 AM 17.1 °F 2.5 °F 14.0 °F 88% 30.11 in 7.0 mi NNE 15.0 mph - N/A   Mostly Cloudy
8:53 AM 18.0 °F 3.6 °F 14.0 °F 84% 30.13 in 7.0 mi NE 15.0 mph - N/A   Overcast
9:29 AM 18.0 °F 5.4 °F 14.0 °F 84% 30.13 in 7.0 mi NNE 11.5 mph - N/A   Mostly Cloudy
9:53 AM 18.0 °F 5.4 °F 14.0 °F 84% 30.15 in 6.0 mi NNE 11.5 mph - N/A   Mostly Cloudy
10:30 AM 19.0 °F 6.1 °F 14.0 °F 81% 30.13 in 8.0 mi NNE 12.7 mph - N/A   Overcast
10:53 AM 19.0 °F 5.6 °F 14.0 °F 81% 30.16 in 8.0 mi NNE 13.8 mph - N/A   Overcast
11:06 AM 19.9 °F 7.3 °F 14.0 °F 78% 30.13 in 9.0 mi North 12.7 mph - N/A   Overcast
11:53 AM 19.9 °F 6.7 °F 14.0 °F 78% 30.14 in 10.0 mi North 13.8 mph - N/A   Overcast
12:53 PM 19.9 °F 6.2 °F 14.0 °F 78% 30.11 in 9.0 mi NNE 15.0 mph - N/A   Overcast
1:31 PM 19.9 °F 5.2 °F 14.0 °F 78% 30.08 in 10.0 mi NNE 17.3 mph - N/A   Overcast
1:53 PM 19.9 °F 5.7 °F 12.9 °F 74% 30.12 in 10.0 mi North 16.1 mph - N/A   Overcast
2:53 PM 19.9 °F 3.9 °F 12.0 °F 71% 30.13 in 10.0 mi NNE 20.7 mph - N/A   Overcast
3:53 PM 19.0 °F 2.4 °F 10.9 °F 71% 30.15 in 7.0 mi North 21.9 mph 27.6 mph N/A   Overcast
4:53 PM 15.1 °F -2.5 °F 9.0 °F 77% 30.20 in 3.0 mi North 20.7 mph 25.3 mph 0.00 in Snow Light Snow
5:09 PM 15.1 °F -0.1 °F 10.9 °F 84% 30.17 in 1.2 mi North 15.0 mph - 0.00 in Snow Light Snow
5:24 PM 14.0 °F -2.0 °F 10.9 °F 88% 30.18 in 0.8 mi North 16.1 mph - 0.01 in Snow Light Snow
5:41 PM 12.9 °F -2.2 °F 10.0 °F 88% 30.19 in 1.0 mi North 13.8 mph - 0.03 in Snow Light Snow
5:43 PM 12.9 °F -2.8 °F 10.0 °F 88% 30.20 in 0.8 mi North 15.0 mph - 0.03 in Snow Light Snow
5:53 PM 12.9 °F -3.9 °F 10.0 °F 88% 30.26 in 0.5 mi North 17.3 mph - 0.04 in Fog , Snow Snow
6:39 PM 12.0 °F -4.0 °F 8.1 °F 84% 30.23 in 0.5 mi North 15.0 mph - 0.06 in Snow Light Snow
6:53 PM 10.9 °F -7.5 °F 7.0 °F 84% 30.28 in 0.5 mi North 19.6 mph 25.3 mph 0.07 in Snow Light Snow
7:33 PM 10.9 °F -5.9 °F 7.0 °F 84% 30.24 in 1.0 mi North 16.1 mph - 0.02 in Snow Light Snow
7:53 PM 10.9 °F -5.9 °F 7.0 °F 84% 30.30 in 1.2 mi North 16.1 mph - 0.03 in Snow Light Snow
8:53 PM 10.9 °F -6.5 °F 7.0 °F 84% 30.32 in 1.5 mi North 17.3 mph - 0.01 in Snow Light Snow
9:05 PM 10.9 °F -5.9 °F 6.1 °F 81% 30.27 in 2.5 mi North 16.1 mph 23.0 mph 0.01 in Snow Light Snow
9:22 PM 10.9 °F -5.9 °F 6.1 °F 81% 30.28 in 8.0 mi North 16.1 mph - 0.01 in Snow Light Snow
9:34 PM 10.9 °F -3.4 °F 6.1 °F 81% 30.28 in 10.0 mi North 11.5 mph - 0.01 in   Overcast
9:53 PM 10.9 °F -6.5 °F 5.0 °F 77% 30.33 in 10.0 mi North 17.3 mph - 0.01 in   Overcast
10:16 PM 10.0 °F -5.9 °F 5.0 °F 80% 30.28 in 10.0 mi NNW 13.8 mph - N/A   Overcast
10:38 PM 9.0 °F -8.5 °F 3.0 °F 77% 30.29 in 10.0 mi NNW 16.1 mph - N/A   Overcast
10:53 PM 8.1 °F -10.2 °F 1.9 °F 76% 30.35 in 10.0 mi NNW 17.3 mph 25.3 mph N/A   Overcast
11:53 PM 7.0 °F -8.3 °F 1.0 °F 77% 30.35 in 10.0 mi NNW 11.5 mph - N/A   Overcast